Home   Weather   Kriens   Past weeks

Flag for Switzerland Past Weather in Kriens, Lucerne, Switzerland — Yesterday and Last 2 Weeks

Now
50 °F

Cool.


Feels Like: 50 °F
Forecast: 44 / 58 °F
Wind: 1 mph from South

Location: Giswil

Current Time: Oct 1, 2016 at 3:43:36 AM

Latest Report: Oct 1, 2016 at 3:00 AM


Visibility: N/A

Pressure: 29.99 "Hg

Humidity: 99%

Dew Point: 50 °F

Location of KriensLocation

Past Weather in Kriens — Graph

°F

Kriens Temperature Yesterday

Maximum temperature yesterday: 72 °F (at 4:00 PM)
Minimum temperature yesterday: 45 °F (at 7:00 AM)
Average temperature yesterday: 56 °F

High & Low Weather Summary for the Past Weeks

 TemperatureHumidityPressure
High73 °F (Sep 29, 4:00 PM)100% (Sep 16, 8:00 AM)30.49 "Hg (Sep 16, 8:00 AM)
Low44 °F (Sep 25, 7:00 AM)44% (Sep 30, 4:00 PM)29.92 "Hg (Sep 18, 3:00 PM)
Average57 °F88%30.15 "Hg
* Reported Sep 16 2:00 AM — Oct 1 2:00 AM, Kriens, Weather by CustomWeather, © 2016

Note: Actual official high and low records may vary slightly from our data, if they occured in-between our weather recording intervals... More about our weather records

Advertising

Kriens Weather History for the Previous 24 Hours

Scroll right to see more
 ConditionsComfort  
Time TempWeatherWind HumidityBarometerVisibility
2:00 AM
Sat, Oct 1
51 °FCool.2 mph99%29.99 "HgN/A
1:00 AM51 °FCool.1 mph99%29.99 "HgN/A
12:00 AM51 °FCool.2 mph97%30.00 "HgN/A
11:00 PM
Fri, Sep 30
51 °FCool.2 mph98%30.03 "HgN/A
10:00 PM53 °FCool.1 mph93%30.03 "HgN/A
9:00 PM54 °FCool.2 mph95%30.03 "HgN/A
8:00 PM57 °FCool.3 mph89%30.01 "HgN/A
7:00 PM62 °FCool.3 mph75%29.99 "HgN/A
6:00 PM68 °FMild.3 mph59%29.97 "HgN/A
5:00 PM71 °FMild.1 mph57%29.97 "HgN/A
4:00 PM72 °FMild.2 mph44%29.97 "HgN/A
3:00 PM72 °FMild.1 mph45%29.98 "HgN/A
2:00 PM71 °FMild.1 mph48%30.00 "HgN/A
1:00 PM67 °FMild.2 mph57%30.04 "HgN/A
12:00 PM64 °FMild.2 mph65%30.06 "HgN/A
11:00 AM60 °FCool.1 mph77%30.09 "HgN/A
10:00 AM56 °FCool.1 mph92%30.12 "HgN/A
9:00 AM46 °FCool.2 mph99%30.15 "HgN/A
7:00 AM45 °FQuite cool.2 mph99%30.15 "HgN/A
6:00 AM45 °FQuite cool.2 mph99%30.14 "HgN/A
5:00 AM46 °FCool.1 mph100%30.15 "HgN/A
4:00 AM47 °FCool.2 mph100%30.16 "HgN/A
3:00 AM47 °FCool.2 mph99%30.17 "HgN/A
Weather by CustomWeather, © 2016

See weather overviewHow to use our weather pages